User: anonymous   Login
Location: Haliburton Scout Reserve
(45.0900°N, 78.3200°W)
Time: 06:18:41
(UTC-04:00)
Language:

KKS-1 - Orbit

View from above orbital plane
View from above orbital plane
View from above satellite
View from above satellite

Ground track
Ground track

The orbit data is extracted from the following two-line orbital elements,

1 33499U 09002H   22141.93937067  .00001409  00000-0  21238-3 0  9996
2 33499  98.2213  23.5413 0010052  46.0861 314.1176 14.75976845716335
Epoch (UTC): 21 May 2022 22:32:41
Eccentricity: 0.0010052
inclination: 98.2213°
perigee height: 635 km
apogee height: 649 km
right ascension of ascending node: 23.5413°
argument of perigee: 46.0861°
revolutions per day: 14.75976845
mean anomaly at epoch: 314.1176°
orbit number at epoch: 71633

The dashed part of the orbit path shows where the satellite is in the earth's shadow,  

DLR